This demonstration page uses our WeatherBlox Daily Observations layout. Learn more.

39.92423, -83.80882

Hourly Observations for April 22, 2015

Temp ( °F °C ) Dew Point ( °F °C ) Humidity (%) Winds ( mph kmh ) Pressure ( in mb ) Visibility ( mi km ) Precip ( " mm )
12:56 am 00:56 Clear 48 8.8 31 -0.5 52 52 WNW 7 11 29.74 1007 8 12.87472 0 0
1:56 am 01:56 Mostly Cloudy 46 7.7 34 1.1 63 63 NNW 7 11 29.76 1008 8 12.87472 0 0
2:56 am 02:56 Cloudy 46 7.7 35 1.6 66 66 NW 9 15 29.75 1008 8 12.87472 0 0
3:56 am 03:56 Cloudy with Light Rain 44 6.6 37 2.7 76 76 N 7 11 29.73 1007 6 9.65604 0 0.0254
4:24 am 04:24 Cloudy with Light Rain 43 6 37 3 81 81 NW 7 11 29.77 1008 5 8.0467 0 0.0254
4:56 am 04:56 Cloudy with Light Rain 42 5.5 38 3.3 86 86 NW 15 24 29.74 1007 4 6.43736 0.01 0.254
5:17 am 05:17 Cloudy with Light Rain 41 5 39 4 93 93 W 6 9 29.77 1008 5 8.0467 0 0.0254
5:39 am 05:39 Cloudy with Light Rain 39 4 37 3 93 93 WNW 10 17 29.74 1007 3 4.82802 0.02 0.508
5:56 am 05:56 Cloudy with Rain 40 4.4 38 3.3 93 93 WNW 17 28 29.74 1007 2.5 4.02335 0.04 1.016
6:17 am 06:17 Cloudy with Light Rain 39 4 37 3 93 93 WNW 8 13 29.77 1008 3 4.82802 0.02 0.508
6:33 am 06:33 Cloudy with Light Rain 39 4 37 3 93 93 W 8 13 29.77 1008 4 6.43736 0.04 1.016
6:56 am 06:56 Cloudy with Light Rain 39 3.8 38 3.3 97 97 W 9 15 29.74 1007 5 8.0467 0.07 1.778
7:09 am 07:09 Cloudy with Light Rain 39 4 37 3 93 93 WSW 9 15 29.77 1008 3 4.82802 0.01 0.254
7:36 am 07:36 Cloudy with Light Rain 39 4 39 4 100 100 WSW 9 15 29.77 1008 2.5 4.02335 0.05 1.27
7:40 am 07:40 Cloudy with Light Rain 39 4 39 4 100 100 SW 10 17 29.77 1008 3 4.82802 0.05 1.27
7:56 am 07:56 Cloudy with Light Rain 40 4.4 39 3.8 96 96 WSW 9 15 29.74 1007 3 4.82802 0.07 1.778
8:56 am 08:56 Cloudy with Mist and Fog 41 5 40 4.4 96 96 WSW 12 19 29.76 1008 6 9.65604 0.01 0.254
9:08 am 09:08 Cloudy with Mist and Fog 43 6 39 4 87 87 WSW 15 24 29.77 1008 6 9.65604 0 0
9:35 am 09:35 Mostly Cloudy with Mist and Fog 43 6 39 4 87 87 W 18 30 29.77 1008 6 9.65604 0 0
9:56 am 09:56 Cloudy with Haze 43 6.1 38 3.3 82 82 W 20 31 29.76 1008 6 9.65604 0 0
10:44 am 10:44 Mostly Cloudy with Haze 45 7 37 3 76 76 W 22 35 29.8 1009 6 9.65604 0 0
10:56 am 10:56 Mostly Cloudy with Haze 45 7.2 36 2.2 71 71 W 22 35 29.76 1008 6 9.65604 0 0
11:56 am 11:56 Hazy 45 7.2 32 0 61 61 W 29 46 29.78 1009 6 9.65604 0 0
12:56 pm 12:56 Mostly Cloudy with Haze 45 7.2 32 0 61 61 W 25 41 29.8 1009 6 9.65604 0 0
1:56 pm 13:56 Mostly Cloudy with Haze 44 6.6 31 -0.5 61 61 W 24 39 29.83 1010 6 9.65604 0 0
2:56 pm 14:56 Mostly Cloudy 45 7.2 32 0 61 61 W 20 31 29.84 1010 7 11.26538 0 0
3:56 pm 15:56 Cloudy with Haze 46 7.7 31 -0.5 56 56 W 21 33 29.84 1011 6 9.65604 0 0
4:56 pm 16:56 Cloudy with Haze 45 7.2 30 -1.1 56 56 W 22 35 29.85 1011 6 9.65604 0 0
5:56 pm 17:56 Cloudy 44 6.6 29 -1.6 56 56 W 24 39 29.89 1012 7 11.26538 0 0
6:56 pm 18:56 Mostly Cloudy with Haze 44 6.6 28 -2.2 54 54 WNW 18 30 29.91 1013 6 9.65604 0 0
7:56 pm 19:56 Mostly Cloudy with Haze 43 6.1 28 -2.2 56 56 W 14 22 29.91 1013 6 9.65604 0 0
8:56 pm 20:56 Mostly Clear 41 5 29 -1.6 63 63 W 8 13 29.91 1013 8 12.87472 0 0
9:56 pm 21:56 Mostly Cloudy 39 3.8 31 -0.5 74 74 WSW 5 7 29.92 1013 8 12.87472 0 0
10:56 pm 22:56 Mostly Cloudy 38 3.3 31 -0.5 76 76 SW 6 9 29.91 1013 8 12.87472 0 0
11:56 pm 23:56 Mostly Clear 38 3.3 29 -1.6 71 71 WSW 8 13 29.92 1013 8 12.87472 0 0

Powered by AerisWeather